Hourly Weather Roundup
Issued by NWS Central Illinois

Home | Current Version | Previous Version | Text Only | Print | Product List | Glossary On
Versions: 1 2 3 4 5 6 7 8 9 10 11 12 13 14 15 16 17 18 19 20 21 22 23 24 25 26 27 28 29 30 31 32 33 34 35 36 37 38 39 40 41 42 43 44 45 46 47 48 49 50
000
NZUS43 KILX 240610
HWRILX

Area Weather Roundup
National Weather Service Lincoln IL
100 AM CDT MON APR 24 2017

NOTE:  "FAIR" indicates few or no clouds below 12,000 feet, with
       no sigificant weather and/or obstructions to visibility.


CITY           SKY/WX    TMP DP  RH WIND       PRES   REMARKS
Bloomington    CLEAR     51  23  33 E6        30.02F
6HR MIN TEMP:  49; 6HR MAX TEMP:  67;

Champaign      CLEAR     51  26  37 NE9       30.00F
6HR MIN TEMP:  51; 6HR MAX TEMP:  68;

Danville       CLEAR     49  30  49 NE6       29.99S
6HR MIN TEMP:  48; 6HR MAX TEMP:  67;

Decatur        CLEAR     44  31  60 NE7       30.01S
6HR MIN TEMP:  43; 6HR MAX TEMP:  65;

Effingham      CLEAR     55  33  44 N3        29.99F
6HR MIN TEMP:  53; 6HR MAX TEMP:  69;

Flora          CLEAR     52  35  51 N6        29.97S
6HR MIN TEMP:  51; 6HR MAX TEMP:  70;

Galesburg      CLEAR     45  36  72 CALM      29.99F
6HR MIN TEMP:  43; 6HR MAX TEMP:  69;

Jacksonville   CLEAR     47  31  52 CALM      29.99F
6HR MIN TEMP:  46; 6HR MAX TEMP:  68;

Lacon          CLOUDY    45  32  61 CALM      30.01S
6HR MIN TEMP:  43; 6HR MAX TEMP:  67;

Lawrenceville  CLEAR     52  33  48 NE8       29.96F
6HR MIN TEMP:  50; 6HR MAX TEMP:  69;

Litchfield     CLEAR     54  29  39 NE3       29.99F
6HR MIN TEMP:  50; 6HR MAX TEMP:  65;

$$


CITY           SKY/WX    TMP DP  RH WIND       PRES   REMARKS
Lincoln        CLEAR     46  30  52 CALM      30.00F
6HR MIN TEMP:  46; 6HR MAX TEMP:  69;

Macomb         CLEAR     44  34  66 CALM      30.01F
6HR MIN TEMP:  44; 6HR MAX TEMP:  71;

Mattoon        CLEAR     50  31  48 CALM      29.99S
6HR MIN TEMP:  50; 6HR MAX TEMP:  67;

Mt Carmel AP   CLEAR     54  32  43 NE10      29.95F
6HR MIN TEMP:  50; 6HR MAX TEMP:  68;

Olney-Noble AP CLEAR     54  31  42 N7        29.97R
Paris AP       CLEAR     46  39  76 N5        30.00F
6HR MIN TEMP:  46; 6HR MAX TEMP:  67;

Peoria         PTCLDY    50  33  52 E6        30.01F
6HR MIN TEMP:  48; 6HR MAX TEMP:  71;

Pontiac        CLEAR     47  31  54 CALM      30.02F
6HR MIN TEMP:  45; 6HR MAX TEMP:  71;

Rantoul        PTCLDY    54  28  37 NE8       30.01S
6HR MIN TEMP:  52; 6HR MAX TEMP:  69;

Robinson       CLEAR     44  34  68 CALM      29.97F
6HR MIN TEMP:  43; 6HR MAX TEMP:  68;

Springfield    CLEAR     50  33  52 E8        30.00S
6HR MIN TEMP:  47; 6HR MAX TEMP:  70;

Taylorville    CLEAR     48  32  54 NE3       30.00S
6HR MIN TEMP:  46; 6HR MAX TEMP:  68;

$$

...REGIONAL REPORTS...


CITY           SKY/WX    TMP DP  RH WIND       PRES   REMARKS
Chicago O`Hare MOCLDY    43  38  82 NE7       30.04F
Kankakee       CLEAR     45  27  48 CALM      30.03F
Moline         CLOUDY    45  37  73 CALM      29.99F
Mount Sterling CLEAR     47  32  56 CALM      29.99F
Mount Vernon   CLEAR     52  32  46 N5        29.95F
Pittsfield     CLEAR     44  38  80 CALM      30.00F
Quincy         PTCLDY    58  23  26 SE5       29.98F
Rockford       PTCLDY    50  36  58 E3        30.05S
$$


CITY           SKY/WX    TMP DP  RH WIND       PRES   REMARKS
Burlington     CLEAR     49  34  56 CALM      29.98F
Cedar Rapids   CLEAR     49  34  56 SE5       29.96F
Des Moines     CLOUDY    53  34  48 S8        29.94F
Kirksville     CLOUDY    53  29  39 S5        29.99F
Ottumwa        CLEAR     50  31  48 S8        29.97F
St Louis       CLEAR     50  37  61 CALM      29.99S
$$


CITY           SKY/WX    TMP DP  RH WIND       PRES   REMARKS
Terre Haute    CLEAR     45  31  58 N6        29.98F
Evansville     CLEAR     55  35  47 N9        29.91F
Indianapolis   CLEAR     51  32  48 NE9       29.98F
Lafayette      CLEAR     45  39  79 E3        30.01S
Madison        CLEAR     39  35  86 E7        30.03S WCI  34
Milwaukee      PTCLDY    39  34  82 N5        30.05F
$$






USA.gov is the U.S. government's official web portal to all federal, state and local government web resources and services.